This is the latest recevied weather packets stored in our database for station/object KS5S. If no packets are shown the sender has not sent any weather packets the latest 10 day(s).
| Time | Temp. | Humidity | Pressure | Rain* | Wind** | Luminosity | Snow |
|---|---|---|---|---|---|---|---|
| 1778078778 | 12.22° C | 87% | 1012.8 hPa | 0 mm | - | 39 W/m² | - |
| 1778078474 | 12.22° C | 86% | 1012.5 hPa | 0 mm | - | 35 W/m² | - |
| 1778078172 | 12.78° C | 85% | 1014 hPa | 0 mm | - | 24 W/m² | - |
| 1778077870 | 12.78° C | 86% | 1013.7 hPa | 0 mm | - | 29 W/m² | - |
| 1778077568 | 12.78° C | 86% | 1013.8 hPa | 0 mm | - | 36 W/m² | - |
| 1778077266 | 12.78° C | 85% | 1013 hPa | 0 mm | - | 58 W/m² | - |
| 1778076963 | 12.78° C | 85% | 1012.7 hPa | 0 mm | - | 37 W/m² | - |
| 1778076662 | 12.78° C | 85% | 1011.9 hPa | 0 mm | - | 52 W/m² | - |
| 1778076359 | 12.78° C | 85% | 1011.5 hPa | 0 mm | - | 42 W/m² | - |
| 1778076056 | 12.78° C | 84% | 1011.9 hPa | 0 mm | - | 51 W/m² | - |
| 1778075753 | 13.33° C | 83% | 1011.7 hPa | 0 mm | - | 57 W/m² | - |
| 1778075449 | 13.33° C | 82% | 1011.7 hPa | 0 mm | - | 61 W/m² | - |
| 1778075146 | 13.33° C | 81% | 1011.8 hPa | 0 mm | - | 53 W/m² | - |
| 1778074841 | 13.33° C | 81% | 1011.9 hPa | 0 mm | - | 56 W/m² | - |
| 1778074539 | 13.33° C | 81% | 1011.5 hPa | 0 mm | - | 57 W/m² | - |
| 1778074236 | 13.33° C | 80% | 1011.3 hPa | 0 mm | - | 60 W/m² | - |
| 1778073933 | 13.33° C | 80% | 1011.5 hPa | 0 mm | - | 59 W/m² | - |
| 1778073630 | 13.89° C | 79% | 1011.1 hPa | 0 mm | - | 71 W/m² | - |
| 1778073327 | 13.89° C | 79% | 1010.9 hPa | 0 mm | - | 103 W/m² | - |
| 1778073023 | 13.89° C | 79% | 1010.8 hPa | 0 mm | - | 117 W/m² | - |
| 1778072720 | 13.89° C | 79% | 1010.6 hPa | 0 mm | - | 110 W/m² | - |
| 1778072418 | 13.89° C | 80% | 1010.5 hPa | 0 mm | - | 63 W/m² | - |
| 1778072116 | 13.89° C | 81% | 1010.5 hPa | 0 mm | - | 39 W/m² | - |
| 1778071814 | 13.89° C | 81% | 1010.8 hPa | 0 mm | - | 36 W/m² | - |
| 1778071511 | 13.89° C | 81% | 1010.4 hPa | 0 mm | - | 37 W/m² | - |
* Rain latest hour (hover to see other rain measurements)
** Current wind speed in m/s (hover to see current wind gust speed)